| time (UTC) | temp F | wind direction | speed knots | gust knots | rain 1hr in | rain 24hr in | rain mn in | humidity % | barometer mb |
| 20260904043054 | 82 | 146 | 0.9 | 7.0 | 0.00 | 0.00 | 0.00 | 66 | 990.6 |
| 20260904041554 | 83 | 158 | 1.7 | 7.8 | 0.00 | 0.00 | 0.00 | 65 | 990.8 |
| 20260904040053 | 83 | 128 | 1.7 | 4.3 | 0.00 | 0.00 | 0.00 | 65 | 990.8 |
| 20260904034601 | 83 | 217 | 2.6 | 5.2 | 0.00 | 0.00 | 0.00 | 66 | 990.8 |
| 20260904033052 | 83 | 138 | 2.6 | 6.1 | 0.00 | 0.00 | 0.00 | 66 | 990.9 |
| 20260904031551 | 84 | 188 | 1.7 | 7.8 | 0.00 | 0.00 | 0.00 | 66 | 990.8 |
| 20260904030051 | 84 | 133 | 4.3 | 7.8 | 0.00 | 0.00 | 0.00 | 65 | 990.8 |
| 20260904024550 | 84 | 150 | 3.5 | 8.7 | 0.00 | 0.00 | 0.00 | 64 | 990.5 |
| 20260904023049 | 85 | 155 | 0.9 | 4.3 | 0.00 | 0.00 | 0.00 | 64 | 990.3 |
| 20260904021549 | 85 | 108 | 0.9 | 6.1 | 0.00 | 0.00 | 0.00 | 66 | 990.0 |
| 20260904020049 | 85 | 141 | 3.5 | 9.6 | 0.00 | 0.00 | 0.00 | 66 | 989.7 |
| 20260904014549 | 86 | 121 | 2.6 | 11.3 | 0.00 | 0.00 | 0.00 | 65 | 989.4 |
| 20260904013049 | 86 | 130 | 6.1 | 11.3 | 0.00 | 0.00 | 0.00 | 64 | 989.3 |
| 20260904011548 | 87 | 137 | 3.5 | 10.4 | 0.00 | 0.00 | 0.00 | 60 | 989.0 |
| 20260904010053 | 88 | 135 | 1.7 | 7.0 | 0.00 | 0.00 | 0.00 | 59 | 988.8 |
| 20260904004557 | 88 | 139 | 5.2 | 11.3 | 0.00 | 0.00 | 0.00 | 59 | 988.9 |
| 20260904003045 | 89 | 84 | 5.2 | 9.6 | 0.00 | 0.00 | 0.00 | 59 | 988.7 |
| 20260904001543 | 89 | 89 | 3.5 | 8.7 | 0.00 | 0.00 | 0.00 | 59 | 988.7 |
| 20260904000056 | 90 | 94 | 3.5 | 10.4 | 0.00 | 0.00 | 0.00 | 58 | 988.6 |
| 20260903234545 | 91 | 107 | 3.5 | 9.6 | 0.00 | 0.00 | 0.00 | 57 | 988.5 |
| 20260903233039 | 91 | 93 | 2.6 | 9.6 | 0.00 | 0.00 | 0.00 | 57 | 988.3 |
| 20260903231538 | 92 | 123 | 1.7 | 6.1 | 0.00 | 0.00 | 0.00 | 57 | 988.1 |
| 20260903230036 | 92 | 131 | 3.5 | 9.6 | 0.00 | 0.00 | 0.00 | 57 | 988.1 |
| 20260903224538 | 93 | 51 | 4.3 | 10.4 | 0.00 | 0.00 | 0.00 | 56 | 988.3 |
| 20260903223038 | 93 | 109 | 2.6 | 9.6 | 0.00 | 0.00 | 0.00 | 57 | 988.0 |
| 20260903221532 | 94 | 120 | 2.6 | 9.6 | 0.00 | 0.00 | 0.00 | 55 | 988.1 |
| 20260903220039 | 94 | 162 | 2.6 | 10.4 | 0.00 | 0.00 | 0.00 | 55 | 988.1 |
| 20260903214526 | 93 | 126 | 4.3 | 8.7 | 0.00 | 0.00 | 0.00 | 56 | 988.2 |
| 20260903213034 | 93 | 207 | 2.6 | 7.8 | 0.00 | 0.00 | 0.00 | 57 | 988.4 |
| 20260903211552 | 93 | 127 | 0.9 | 5.2 | 0.00 | 0.00 | 0.00 | 57 | 988.4 |
| 20260903210017 | 92 | 141 | 4.3 | 11.3 | 0.00 | 0.00 | 0.00 | 59 | 988.7 |
| 20260903204513 | 92 | 167 | 2.6 | 8.7 | 0.00 | 0.00 | 0.00 | 59 | 988.9 |
| 20260903203012 | 92 | 215 | 3.5 | 10.4 | 0.00 | 0.00 | 0.00 | 59 | 989.1 |
| 20260903201508 | 90 | 360 | 3.5 | 7.8 | 0.00 | 0.00 | 0.00 | 63 | 989.4 |
| 20260903200006 | 91 | 49 | 3.5 | 8.7 | 0.00 | 0.00 | 0.00 | 62 | 989.4 |
| 20260903194503 | 90 | 127 | 2.6 | 8.7 | 0.00 | 0.00 | 0.00 | 63 | 989.5 |
| 20260903193101 | 90 | 110 | 4.3 | 10.4 | 0.00 | 0.00 | 0.00 | 64 | 989.7 |
| 20260903191557 | 90 | 117 | 2.6 | 12.2 | 0.00 | 0.00 | 0.00 | 64 | 989.8 |
| 20260903190057 | 89 | 96 | 3.5 | 8.7 | 0.00 | 0.00 | 0.00 | 66 | 990.1 |
| 20260903184600 | 88 | 97 | 2.6 | 9.6 | 0.00 | 0.00 | 0.00 | 67 | 990.3 |
| 20260903183049 | 88 | 165 | 4.3 | 10.4 | 0.00 | 0.00 | 0.00 | 69 | 990.5 |
| 20260903181547 | 88 | 128 | 3.5 | 9.6 | 0.00 | 0.00 | 0.00 | 69 | 990.6 |
| 20260903180049 | 88 | 186 | 2.6 | 11.3 | 0.00 | 0.00 | 0.00 | 68 | 990.6 |
| 20260903174604 | 88 | 129 | 2.6 | 8.7 | 0.00 | 0.00 | 0.00 | 68 | 990.8 |
| 20260903173045 | 88 | 176 | 2.6 | 11.3 | 0.00 | 0.00 | 0.00 | 69 | 990.9 |
| 20260903171542 | 88 | 173 | 1.7 | 10.4 | 0.00 | 0.00 | 0.00 | 68 | 991.1 |
| 20260903170103 | 88 | 96 | 4.3 | 8.7 | 0.00 | 0.00 | 0.00 | 69 | 991.1 |
| 20260903164542 | 86 | 172 | 1.7 | 10.4 | 0.00 | 0.00 | 0.00 | 73 | 991.2 |
| 20260903163033 | 85 | 240 | 2.6 | 11.3 | 0.00 | 0.00 | 0.00 | 74 | 991.2 |
| 20260903161532 | 85 | 210 | 1.7 | 6.1 | 0.00 | 0.00 | 0.00 | 74 | 991.3 |
| 20260903160033 | 83 | 116 | 0.9 | 7.8 | 0.00 | 0.00 | 0.00 | 76 | 991.3 |
| 20260903154528 | 82 | 184 | 0.9 | 5.2 | 0.00 | 0.00 | 0.00 | 77 | 991.3 |
| 20260903153027 | 82 | 105 | 1.7 | 7.0 | 0.00 | 0.00 | 0.00 | 78 | 991.2 |
| 20260903151526 | 82 | 138 | 2.6 | 6.1 | 0.00 | 0.00 | 0.00 | 78 | 991.2 |
| 20260903150028 | 81 | 231 | 1.7 | 5.2 | 0.00 | 0.00 | 0.00 | 78 | 991.3 |
| 20260903144522 | 81 | 76 | 1.7 | 6.1 | 0.00 | 0.00 | 0.00 | 79 | 991.3 |
| 20260903143020 | 81 | 110 | 2.6 | 7.0 | 0.00 | 0.00 | 0.00 | 79 | 991.4 |
| 20260903141520 | 80 | 115 | 1.7 | 7.0 | 0.00 | 0.00 | 0.00 | 78 | 991.5 |
| 20260903140015 | 80 | 160 | 1.7 | 6.1 | 0.00 | 0.00 | 0.00 | 78 | 991.4 |
| 20260903134512 | 80 | 53 | 2.6 | 6.1 | 0.00 | 0.00 | 0.00 | 78 | 991.2 |
| 20260903133010 | 80 | 108 | 0.0 | 3.5 | 0.00 | 0.00 | 0.00 | 78 | 991.1 |
| 20260903131508 | 80 | 139 | 0.0 | 3.5 | 0.00 | 0.00 | 0.00 | 78 | 991.1 |
| 20260903130006 | 79 | 99 | 0.9 | 5.2 | 0.00 | 0.00 | 0.00 | 78 | 991.1 |
| 20260903124505 | 79 | 112 | 0.9 | 4.3 | 0.00 | 0.00 | 0.00 | 77 | 991.0 |
| 20260903123003 | 79 | 124 | 0.0 | 4.3 | 0.00 | 0.00 | 0.00 | 76 | 990.9 |
| 20260903121604 | 79 | 127 | 0.0 | 1.7 | 0.00 | 0.00 | 0.00 | 76 | 990.6 |
| 20260903121502 | 79 | 127 | 0.0 | 1.7 | 0.00 | 0.00 | 0.00 | 76 | 990.6 |
| 20260903120105 | 79 | 127 | 0.0 | 0.9 | 0.00 | 0.00 | 0.00 | 76 | 990.6 |
| 20260903114602 | 79 | 127 | 0.0 | 1.7 | 0.00 | 0.00 | 0.00 | 76 | 990.6 |
| 20260903113059 | 79 | 127 | 0.0 | 2.6 | 0.00 | 0.00 | 0.00 | 75 | 990.7 |
| 20260903111623 | 80 | 104 | 0.0 | 1.7 | 0.00 | 0.00 | 0.00 | 75 | 990.6 |
| 20260903110109 | 80 | 104 | 0.0 | 1.7 | 0.00 | 0.00 | 0.00 | 75 | 990.4 |
| 20260903104622 | 80 | 90 | 0.0 | 0.9 | 0.00 | 0.00 | 0.00 | 74 | 990.3 |
| 20260903103055 | 80 | 90 | 0.0 | 0.9 | 0.00 | 0.00 | 0.00 | 73 | 990.2 |
| 20260903101552 | 81 | 90 | 0.0 | 0.9 | 0.00 | 0.00 | 0.00 | 73 | 990.2 |
| 20260903100052 | 81 | 101 | 0.0 | 3.5 | 0.00 | 0.00 | 0.00 | 74 | 990.4 |
| 20260903094600 | 81 | 203 | 0.0 | 1.7 | 0.00 | 0.00 | 0.00 | 75 | 990.4 |
| 20260903093052 | 81 | 198 | 0.0 | 1.7 | 0.00 | 0.00 | 0.00 | 75 | 990.5 |
| 20260903091550 | 81 | 82 | 0.0 | 0.9 | 0.00 | 0.00 | 0.00 | 75 | 990.3 |
| 20260903090051 | 81 | 82 | 0.0 | 0.9 | 0.00 | 0.00 | 0.00 | 74 | 990.2 |
| 20260903084547 | 81 | 82 | 0.0 | 3.5 | 0.00 | 0.00 | 0.00 | 74 | 990.1 |
| 20260903083047 | 81 | 117 | 0.9 | 2.6 | 0.00 | 0.00 | 0.00 | 74 | 990.1 |
| 20260903081547 | 81 | 91 | 0.9 | 2.6 | 0.00 | 0.00 | 0.00 | 74 | 990.2 |
| 20260903080048 | 81 | 137 | 0.9 | 2.6 | 0.00 | 0.00 | 0.00 | 73 | 990.3 |
| 20260903074547 | 81 | 137 | 0.0 | 2.6 | 0.00 | 0.00 | 0.00 | 73 | 990.3 |
| 20260903073047 | 81 | 137 | 0.0 | 2.6 | 0.00 | 0.00 | 0.00 | 73 | 990.3 |
| 20260903071543 | 81 | 78 | 0.9 | 2.6 | 0.00 | 0.00 | 0.00 | 72 | 990.3 |
| 20260903070045 | 81 | 78 | 0.0 | 2.6 | 0.00 | 0.00 | 0.00 | 72 | 990.3 |
| 20260903064540 | 82 | 158 | 0.0 | 2.6 | 0.00 | 0.00 | 0.00 | 71 | 990.5 |
| 20260903063039 | 82 | 131 | 0.0 | 4.3 | 0.00 | 0.00 | 0.00 | 71 | 990.6 |
| 20260903061555 | 82 | 121 | 1.7 | 4.3 | 0.00 | 0.00 | 0.00 | 70 | 990.8 |
| 20260903060036 | 82 | 131 | 1.7 | 6.1 | 0.00 | 0.00 | 0.00 | 70 | 990.8 |
| 20260903054533 | 83 | 116 | 4.3 | 7.8 | 0.00 | 0.00 | 0.00 | 68 | 991.1 |
| 20260903053030 | 83 | 91 | 3.5 | 8.7 | 0.00 | 0.00 | 0.00 | 66 | 991.1 |
| 20260903051527 | 84 | 104 | 1.7 | 7.8 | 0.00 | 0.00 | 0.00 | 65 | 990.9 |
| 20260903050023 | 85 | 74 | 3.5 | 7.8 | 0.00 | 0.00 | 0.00 | 64 | 990.9 |
| 20260903044522 | 85 | 107 | 3.5 | 8.7 | 0.00 | 0.00 | 0.00 | 63 | 990.7 |